Regional Weather Roundup
Issued by NWS

Home | Current Version | Previous Version | Text Only | Print | Product List | Glossary On
Versions: 1 2 3 4 5 6 7 8 9 10 11 12 13 14 15 16 17 18 19 20 21 22 23 24 25 26 27 28 29 30 31 32 33 34 35 36 37 38 39 40 41 42 43 44 45 46 47 48 49 50
000
ASUS46 KLOX 191512
RWRCA

SOUTHERN CALIFORNIA WEATHER ROUNDUP
NATIONAL WEATHER SERVICE OXNARD CALIFORNIA
700 AM PST FRI DEC 19 2014

NOTE: "FAIR" INDICATES FEW OR NO CLOUDS BELOW 12,000 FEET WITH NO
SIGNIFICANT WEATHER AND/OR OBSTRUCTIONS TO VISIBILITY.

  -  STATIONS PRECEEDED BY AN ASTERISK (*) ARE NOT NWS OR FAA
     STATIONS AND ARE NOT SUBJECT TO NWS AND FAA QUALITY CONTROL.

CAZ041-042-087-191600-
LA AND ORANGE COUNTY COASTAL AREAS


CITY           SKY/WX    TMP DP  RH WIND       PRES   REMARKS
L.A. DOWNTOWN  CLEAR     50  44  80 CALM      30.22S
L.A. AIRPORT   PTCLDY    50  45  83 CALM      30.23R
LONG BEACH     CLEAR     49  46  90 NW3       30.23R

CITY           SKY/WX    TMP DP  RH WIND       PRES   REMARKS
AVALON           N/A     55 N/A N/A MISG        N/A
FULLERTON      CLEAR     49  45  86 CALM      30.22R
HAWTHORNE      CLEAR     52  45  77 CALM      30.23R
*LEO CARRILLO    N/A     52  46  80 N8          N/A
*LOS ALAMITOS  PTCLDY    47  46  95 NW5       30.23R
*REDONDO BEACH   N/A     47  45  90 CALM      30.22R
SANTA ANA      PTCLDY    52  45  77 CALM      30.22S
STA MONICA APT CLEAR     49  43  80 N3        30.23S
TORRANCE       PTCLDY    50  48  93 S6        30.24
*UCLA            N/A     52  43  71 N7        30.20R

$$

CAZ547-548-048-191600-
LA COUNTY VALLEYS AND INLAND EMPIRE


CITY           SKY/WX    TMP DP  RH WIND       PRES   REMARKS
BURBANK        CLEAR     46  42  86 CALM      30.22R
VAN NUYS       CLEAR     45  42  89 CALM      30.22S

CITY           SKY/WX    TMP DP  RH WIND       PRES   REMARKS
CORONA AIRPORT SUNNY     41  41 100 CALM      30.23S
*CHATSWORTH      N/A     45  41  88 CALM      30.23R
CHINO          PTCLDY    43  41  93 CALM      30.23S
MARCH AFB      PTCLDY    40  40 100 E3        30.22R
*NORTHRIDGE      N/A     43  39  87 CALM        N/A
ONTARIO        PTCLDY    47  40  76 CALM      30.21F
*PASADENA        N/A     48  45  87 NE1         N/A
POMONA         CLEAR     45  41  87 CALM      30.24
RIVERSIDE      PTCLDY    44  40  85 NE5       30.22S
SAN BERNARDINO PTCLDY    41  36  81 CALM      30.22
*SAN GABRIEL     N/A     47  43  84 CALM      30.21F
*SAN RAFAEL HI   N/A     49  41  74 N6          N/A
*SAUGUS          N/A     42  37  83 W2          N/A
*WHITEMAN AP   NOT AVBL
*WOODLAND HILL   N/A     43  41  93 S1          N/A

$$

CAZ054-055-191600-
LA AND SAN BERNARDINO COUNTY MOUNTAINS


CITY           SKY/WX    TMP DP  RH WIND       PRES   REMARKS
*BIG BEAR AIRP MOSUNNY   19  19 100 CALM      30.24R
*CHILAO          N/A     36  33  89 CALM        N/A
MT WILSON NWS    N/A     32  32 100 CALM        N/A
SANDBERG       CLEAR     41  33  73 W5        30.23S
*WARM SPRINGS    N/A     42  33  71 W3          N/A

$$

CAZ028-029-059-060-099-191600-
ANTELOPE VALLEY AND SURROUNDING AREAS


CITY           SKY/WX    TMP DP  RH WIND       PRES   REMARKS
LANCASTER      CLEAR     32  31  96 CALM      30.24R
PALMDALE       CLEAR     35  32  88 CALM      30.23R

CITY           SKY/WX    TMP DP  RH WIND       PRES   REMARKS
29 PALMS       CLOUDY    38  34  85 CALM      30.31S
BARSTOW/DAGGET MOCLDY    38  33  82 CALM      30.23F
BISHOP         CLOUDY    28  25  88 W5        30.22R WCI  23
CHINA LAKE     CLEAR     33  32  96 S6        30.22R WCI  28
EDWARDS AFB    MOCLDY    33  33  99 SW1       30.22S
MOJAVE         FAIR      36  36 100 CALM      30.23R
NEEDLES        PTCLDY    43  37  79 W5        30.25R
VICTORVILLE      N/A     36  32  87 S5        30.21S WCI  32

$$

CAZ039-040-191600-
VENTURA AND SANTA BARBARA COUNTY COAST


CITY           SKY/WX    TMP DP  RH WIND       PRES   REMARKS
CAMARILLO      CLEAR     48  42  80 NE7       30.21S
NWS OXNARD       N/A     46  41  82 NE1       30.20F
OXNARD AIRPORT CLEAR     49  42  77 NE10      30.21S
*POINT MUGU    PTCLDY    50  45  83 NE8       30.21F
SBA APT/GOLETA CLEAR     46  44  93 NW3       30.21R
*SANTA BARBARA   N/A     49  45  85 E1        30.29R
*VENTURA         N/A     49  43  79 NE8       30.26S

$$

CAZ044-045-191600-
VENTURA COUNTY VALLEYS


CITY           SKY/WX    TMP DP  RH WIND       PRES   REMARKS
*SIMI VALLEY     N/A     43  40  88 CALM      30.23R
*OJAI            N/A     40  38  94 CALM      30.20F
*FILLMORE        N/A     42  39  91 CALM      30.14S

$$

CAZ053-191600-
VENTURA COUNTY MOUNTAINS


CITY           SKY/WX    TMP DP  RH WIND       PRES   REMARKS
*LOCKWOOD VLY    N/A     27  25  93 MISG        N/A
*ROSE VALLEY     N/A     32  34 100 MISG        N/A

$$

CAZ034-035-036-191600-
CENTRAL COAST AND SANTA YNEZ VALLEY


CITY           SKY/WX    TMP DP  RH WIND       PRES   REMARKS
SAN LUIS OBISP MOCLDY    48  47  96 NE8       30.22R
SANTA MARIA    CLEAR     50  45  83 CALM      30.22R

CITY           SKY/WX    TMP DP  RH WIND       PRES   REMARKS
*CAL POLY SLO    N/A     46  46 100 CALM        N/A
*LOMPOC        CLEAR     45  39  81 CALM      30.22S
*PISMO BEACH     N/A     49  47  93 NE2       30.23S
*SANTA YNEZ    FAIR      46  45  93 NE6       30.23R

$$

CAZ037-038-051-191600-
SAN LUIS OBISPO COUNTY INTERIOR AND CUYAMA VALLEY


CITY           SKY/WX    TMP DP  RH WIND       PRES   REMARKS
*CUYAMA          N/A     42  40  93 CALM      30.21S
PASO ROBLES    MOCLDY    45  43  93 SE6       30.21R

$$

CAZ032-033-061-191600-
SOUTHERN DESERTS


CITY           SKY/WX    TMP DP  RH WIND       PRES   REMARKS
BLYTHE         CLEAR     44  39  82 W7        30.24R
IMPERIAL       MOCLDY    43  40  89 W6        30.23R
PALM SPRINGS   PTCLDY    50  40  68 NW6       30.25R
THERMAL        MOCLDY    39  35  86 N3        30.22R

$$

ELSEWHERE ACROSS THE WESTERN UNITED STATES AND MEXICO


CITY           SKY/WX    TMP DP  RH WIND       PRES   REMARKS
DENVER, CO     PTCLDY    25  19  78 SW9       30.09S WCI  15
GRAND CANYON,  CLEAR     15  13  91 E3        30.25S
HONOLULU, HI   MOCLDY    75  66  73 NE9       30.08R
KAHULUI, MAUI  CLEAR     64  61  88 S5        30.08R
LAKE TAHOE, CA MOCLDY    40   9  28 S15G22    30.10F WCI  32
LAS VEGAS, NV  MOCLDY    42  35  76 SW8       30.20S
MAMMOTH LAKES, FAIR      18  18 100 CALM      30.19R
MEXICO CITY, M SUNNY     59  43  55 SW5       30.34R
PHOENIX, AZ    PTCLDY    45  41  86 E6        30.21R
PORTLAND, OR   CLOUDY    46  44  93 SE7       29.94R
RENO, NV       MOCLDY    35  26  69 VRB5      30.06S WCI  31
SALT LAKE CITY MOCLDY    32  27  81 SE9       30.19S WCI  24
SAN DIEGO, CA  MOCLDY    53  45  74 CALM      30.24R
SAN FRANCISCO, LGT RAIN  56  55  97 SE5       30.12R FOG
SAN JOSE, CA   CLOUDY    53  47  79 E14G23    30.12F
SEATTLE, WA    CLOUDY    46  41  82 S8        29.85S
TIJUANA, MEX   PTCLDY    48  41  76 E6        30.24R

$$

STATION/POSITION TIME  TEMP    WIND        PRES    VSBY  WAVE
                       AIR SEA DIR/SP/G                  HT/PER
                 (UTC) (F)     (DEG/KT/KT) (MB)    (MI)  (FT/S)
POINT ARGUELLO B NOT AVBL
WEST SANTA BARBA 1500   59 61   CALM  /  2 1022.4R         7/11
POINT CONCEPTION NOT AVBL
EAST SANTA BARBA NOT AVBL
SANTA MONICA BAY 1500   59 64   10/  6/  8 1023.1R         4/13



USA.gov is the U.S. government's official web portal to all federal, state and local government web resources and services.